{"data":{"norad_id":57334,"intl_designator":"2023-099G","name":"STARLINK-5589","alt_names":[],"object_type":"PAYLOAD","status":"ACTIVE","operator":null,"country":"US","launch_date":"2023-07-16","launch_site_code":"AFETR","launch_vehicle":null,"mission":null,"orbit_class":"UNKNOWN","rcs_meters":null,"size_class":null,"mass_kg":null,"dimensions":null,"purposes":["comms"],"wikipedia_slug":null,"has_3d_model":false,"image_url":null,"decayed_at":null,"tle_current":{"epoch":"2026-05-25T02:43:32.575008Z","epoch_age_seconds":65352,"freshness":"FRESH","line1":"1 57334U 23099G   26145.11357147  .00000467  00000+0  26506-4 0  9991","line2":"2 57334  43.0013 180.8672 0001291 269.3998  90.6706 15.27576859157765","mean_motion":15.27576859,"eccentricity":0.0001291,"inclination_deg":43.0013,"raan_deg":180.8672,"arg_perigee_deg":269.3998,"mean_anomaly_deg":90.6706,"bstar":2.6506e-5,"rev_number":15776,"period_min":94.266942544722,"perigee_km":482.17272100051,"apogee_km":483.94428167896,"semimajor_km":6861.1955013397,"source":"CELESTRAK","updated_at":"2026-05-25T13:38:18.286501Z"}}}